User: anonymous   Login
Location: Unspecified
(0.0000°N, 0.0000°E)
Time: 08:04:51
(UTC+00:00)
Language:

Vela 3B - Orbit

View from above orbital plane
View from above orbital plane
View from above satellite
View from above satellite

Ground track
Ground track

The orbit data is extracted from the following two-line orbital elements,

1 01459U 65058B   14356.55328935 -.00000590  00000-0  00000+0 0   201
2 01459 002.6899 041.5592 4408720 296.6169 359.7615 00.21391283 39068
Epoch (UTC): 22 December 2014 13:16:44
Eccentricity: 0.4408720
inclination: 2.6899°
perigee height: 59653 km
apogee height: 163784 km
right ascension of ascending node: 41.5592°
argument of perigee: 296.6169°
revolutions per day: 0.21391283
mean anomaly at epoch: 359.7615°
orbit number at epoch: 3906

The dashed part of the orbit path shows where the satellite is in the earth's shadow,  

DLR